EXPRESS 80

Last updated on Wed Sep 17 2025 00:02:50 GMT+0000 (Coordinated Universal Time)

1 45986U 20053B 25258.79181589 .00000000 00000+0 00000+0 0 9990 2 45986 0.0228 192.4750 0001505 188.8780 338.6532 1.00270065 18881
UTC large
Height (km)
Speed (km/s)
/
Latitude / Longitude
Inclination (degrees)
Orbital Period (minutes)
Azimuth
Elevation
Range (km)
Doppler Factor

Next 0 passes for location: London (51.5072 / 0.1276)

Sorry there are no passes over London.